Location: Unnamed
(48.6007°N, 2.4808°E)
Time: 00:44:36
(UTC+01:00)

BlueWalker 3 - Visible Passes

Search period start: 07 December 2022 00:00
Search period end: 17 December 2022 00:00
Orbit: 501 x 518 km, 53.2° (Epoch: 06 December)

Date Brightness Start Highest point End Pass type
(mag) Time Alt. Az. Time Alt. Az. Time Alt. Az.
07 Dec 1.8 18:44:01 10° WNW 18:47:57 75° NNE 18:49:06 43° E visible
07 Dec 4.9 20:23:02 10° W 20:23:57 15° W 20:23:57 15° W visible
08 Dec 1.9 18:25:37 10° WNW 18:29:32 78° NNE 18:31:51 23° ESE visible
08 Dec 4.4 20:04:40 10° W 20:06:42 21° WSW 20:06:42 21° WSW visible
09 Dec 1.9 18:07:12 10° WNW 18:11:08 81° NNE 18:14:45 12° ESE visible
09 Dec 4.0 19:46:18 10° W 19:49:28 24° SW 19:49:37 24° SW visible
10 Dec 1.9 17:48:47 10° WNW 17:52:43 84° NNE 17:56:37 10° ESE visible
10 Dec 4.2 19:27:56 10° W 19:31:02 23° SW 19:32:47 17° S visible
11 Dec 2.0 17:30:22 10° WNW 17:34:18 87° NNE 17:38:12 10° ESE visible
11 Dec 4.4 19:09:34 10° W 19:12:35 21° SW 19:15:34 10° S visible
12 Dec 4.6 18:51:12 10° W 18:54:08 20° SW 18:57:02 10° S visible
13 Dec 4.8 18:32:49 10° W 18:35:39 19° SW 18:38:29 10° S visible
14 Dec 4.9 18:14:28 10° W 18:17:12 18° SW 18:19:54 10° S visible
15 Dec 5.0 17:56:06 10° W 17:58:43 17° SW 18:01:19 10° S visible
16 Dec 5.2 17:37:45 10° W 17:40:15 16° SW 17:42:43 10° S visible
